Home   Weather   Berkeley   Past weeks
Flag for USA

Past Weather in Berkeley, California, USA — Yesterday and Last 2 Weeks

Now
74 °F

Passing clouds.


Feels Like: 77 °F
Forecast: 67 / 58 °F
Wind: 14 mph from Northwest

Location: Metro Oakland International Airport

Current Time: Jul 20, 2019 at 1:26:11 pm

Latest Report: Jul 20, 2019 at 12:53 pm


Visibility: 10 mi

Pressure: 29.95 "Hg

Humidity: 53%

Dew Point: 56 °F

Location of BerkeleyLocation

Past Weather in Berkeley — Graph

°F

Berkeley Temperature Yesterday

Maximum temperature yesterday: 76 °F (at 3:53 pm)
Minimum temperature yesterday: 61 °F (at 11:53 pm)
Average temperature yesterday: 67 °F

High & Low Weather Summary for the Past Weeks

 TemperatureHumidityPressure
High78 °F (Jul 17, 1:53 pm)87% (Jul 10, 2:53 am)30.11 "Hg (Jul 10, 2:53 am)
Low57 °F (Jul 14, 5:53 am)46% (Jul 17, 1:53 pm)29.87 "Hg (Jul 19, 4:53 am)
Average64 °F72%29.97 "Hg
* Reported Jul 5 11:53 am — Jul 20 11:53 am, Berkeley. Weather by CustomWeather, © 2019

Note: Actual official high and low records may vary slightly from our data, if they occured in-between our weather recording intervals... More about our weather records

Advertising

Berkeley Weather History for the Previous 24 Hours

Scroll right to see more
 ConditionsComfort  
Time TempWeatherWind HumidityBarometerVisibility
11:53 am
Sat, Jul 20
70 °FPassing clouds.9 mph57%29.96 "Hg10 mi
10:53 am67 °FScattered clouds.5 mph63%29.96 "Hg10 mi
9:53 am67 °FMostly cloudy.7 mph63%29.96 "Hg10 mi
8:53 am64 °FMostly cloudy.6 mph70%29.96 "Hg10 mi
7:53 am64 °FOvercast.8 mph70%29.95 "Hg10 mi
6:53 am63 °FOvercast.6 mph73%29.93 "Hg10 mi
5:53 am64 °FOvercast.3 mph70%29.92 "Hg10 mi
4:53 am64 °FOvercast.6 mph70%29.91 "Hg10 mi
3:53 am64 °FOvercast.7 mph73%29.91 "Hg10 mi
2:53 am63 °FOvercast.5 mph75%29.92 "Hg10 mi
1:53 am62 °FOvercast.5 mph80%29.92 "Hg10 mi
1:20 am60 °FPassing clouds.5 mph83%29.92 "Hg10 mi
12:53 am61 °FPassing clouds.3 mph81%29.91 "Hg10 mi
11:53 pm
Fri, Jul 19
61 °FPassing clouds.9 mph81%29.91 "Hg10 mi
10:53 pm62 °FPassing clouds.6 mph78%29.91 "Hg10 mi
9:53 pm63 °FPassing clouds.9 mph78%29.90 "Hg10 mi
8:53 pm65 °FPassing clouds.7 mph73%29.89 "Hg10 mi
7:53 pm66 °FPassing clouds.13 mph70%29.88 "Hg10 mi
6:53 pm69 °FPassing clouds.14 mph63%29.88 "Hg10 mi
5:53 pm71 °FPassing clouds.12 mph57%29.88 "Hg10 mi
4:53 pm73 °FPassing clouds.15 mph55%29.88 "Hg10 mi
3:53 pm76 °FPassing clouds.14 mph52%29.89 "Hg10 mi
2:53 pm75 °FPassing clouds.13 mph54%29.90 "Hg10 mi
1:53 pm75 °FPassing clouds.10 mph52%29.90 "Hg10 mi
Weather by CustomWeather, © 2019

See weather overview